Year,Month,Day,Hour,Minute,Value (Times are PST for windspeed in km/hr)
2020,01,15,00,00,6.90
2020,01,15,00,01,6.70
2020,01,15,00,02,6.00
2020,01,15,00,03,5.70
2020,01,15,00,04,6.60
2020,01,15,00,05,7.30
2020,01,15,00,06,8.20
2020,01,15,00,07,6.60
2020,01,15,00,08,9.90
2020,01,15,00,09,12.30
2020,01,15,00,10,8.20
2020,01,15,00,11,7.00
2020,01,15,00,12,10.00
2020,01,15,00,13,11.30
2020,01,15,00,14,9.70
2020,01,15,00,15,9.30
2020,01,15,00,16,9.50
2020,01,15,00,17,8.60
2020,01,15,00,18,8.30
2020,01,15,00,19,6.80
2020,01,15,00,20,7.90
2020,01,15,00,21,7.30
2020,01,15,00,22,8.90
2020,01,15,00,23,5.50
2020,01,15,00,24,4.70
2020,01,15,00,25,7.60
2020,01,15,00,26,7.30
2020,01,15,00,27,7.50
2020,01,15,00,28,5.50
2020,01,15,00,29,5.20
2020,01,15,00,30,5.20
2020,01,15,00,31,4.60
2020,01,15,00,32,5.20
2020,01,15,00,33,4.90
2020,01,15,00,34,4.90
2020,01,15,00,35,5.00
2020,01,15,00,36,5.30
2020,01,15,00,37,5.60
2020,01,15,00,38,8.70
2020,01,15,00,39,7.50
2020,01,15,00,40,4.20
2020,01,15,00,41,5.70
2020,01,15,00,42,4.30
2020,01,15,00,43,5.10
2020,01,15,00,44,4.80
2020,01,15,00,45,3.80
2020,01,15,00,46,5.40
2020,01,15,00,47,4.40
2020,01,15,00,48,4.70
2020,01,15,00,49,5.10
2020,01,15,00,50,5.40
2020,01,15,00,51,9.00
2020,01,15,00,52,5.80
2020,01,15,00,53,5.80
2020,01,15,00,54,4.90
2020,01,15,00,55,5.60
2020,01,15,00,56,6.70
2020,01,15,00,57,5.80
2020,01,15,00,58,3.80
2020,01,15,00,59,5.30
2020,01,15,01,00,6.10
2020,01,15,01,01,5.30
2020,01,15,01,02,5.80
2020,01,15,01,03,6.10
2020,01,15,01,04,3.40
2020,01,15,01,05,5.90
2020,01,15,01,06,8.60
2020,01,15,01,07,5.20
2020,01,15,01,08,7.00
2020,01,15,01,09,5.80
2020,01,15,01,10,4.80
2020,01,15,01,11,5.70
2020,01,15,01,12,7.20
2020,01,15,01,13,12.10
2020,01,15,01,14,11.80
2020,01,15,01,15,8.10
2020,01,15,01,16,7.60
2020,01,15,01,17,6.60
2020,01,15,01,18,7.00
2020,01,15,01,19,8.10
2020,01,15,01,20,6.40
2020,01,15,01,21,4.60
2020,01,15,01,22,5.20
2020,01,15,01,23,4.60
2020,01,15,01,24,3.80
2020,01,15,01,25,6.10
2020,01,15,01,26,5.60
2020,01,15,01,27,4.50
2020,01,15,01,28,4.80
2020,01,15,01,29,4.80
2020,01,15,01,30,4.50
2020,01,15,01,31,5.60
2020,01,15,01,32,5.90
2020,01,15,01,33,6.00
2020,01,15,01,34,5.90
2020,01,15,01,35,6.70
2020,01,15,01,36,6.30
2020,01,15,01,37,4.70
2020,01,15,01,38,4.70
2020,01,15,01,39,5.40
2020,01,15,01,40,4.80
2020,01,15,01,41,5.80
2020,01,15,01,42,5.60
2020,01,15,01,43,6.20
2020,01,15,01,44,5.90
2020,01,15,01,45,5.20
2020,01,15,01,46,6.30
2020,01,15,01,47,5.70
2020,01,15,01,48,6.00
2020,01,15,01,49,5.00
2020,01,15,01,50,4.60
2020,01,15,01,51,4.00
2020,01,15,01,52,4.70
2020,01,15,01,53,5.30
2020,01,15,01,54,5.10
2020,01,15,01,55,4.80
2020,01,15,01,56,5.30
2020,01,15,01,57,4.80
2020,01,15,01,58,5.10
2020,01,15,01,59,6.40
2020,01,15,02,00,4.70
2020,01,15,02,01,5.30
2020,01,15,02,02,5.60
2020,01,15,02,03,4.80
2020,01,15,02,04,4.50
2020,01,15,02,05,5.20
2020,01,15,02,06,6.10
2020,01,15,02,07,6.00
2020,01,15,02,08,5.70
2020,01,15,02,09,5.40
2020,01,15,02,10,5.80
2020,01,15,02,11,6.60
2020,01,15,02,12,6.50
2020,01,15,02,13,7.20
2020,01,15,02,14,6.40
2020,01,15,02,15,5.30
2020,01,15,02,16,5.50
2020,01,15,02,17,6.30
2020,01,15,02,18,5.60
2020,01,15,02,19,5.10
2020,01,15,02,20,6.50
2020,01,15,02,21,6.70
2020,01,15,02,22,6.00
2020,01,15,02,23,5.60
2020,01,15,02,24,5.80
2020,01,15,02,25,6.70
2020,01,15,02,26,5.30
2020,01,15,02,27,6.00
2020,01,15,02,28,6.10
2020,01,15,02,29,6.60
2020,01,15,02,30,5.60
2020,01,15,02,31,5.10
2020,01,15,02,32,4.90
2020,01,15,02,33,6.90
2020,01,15,02,34,7.70
2020,01,15,02,35,6.30
2020,01,15,02,36,4.50
2020,01,15,02,37,5.80
2020,01,15,02,38,5.10
2020,01,15,02,39,5.60
2020,01,15,02,40,4.30
2020,01,15,02,41,4.80
2020,01,15,02,42,5.00
2020,01,15,02,43,4.40
2020,01,15,02,44,4.40
2020,01,15,02,45,4.60
2020,01,15,02,46,5.60
2020,01,15,02,47,5.20
2020,01,15,02,48,6.20
2020,01,15,02,49,4.30
2020,01,15,02,50,4.40
2020,01,15,02,51,5.50
2020,01,15,02,52,6.40
2020,01,15,02,53,6.00
2020,01,15,02,54,5.00
2020,01,15,02,55,5.00
2020,01,15,02,56,5.10
2020,01,15,02,57,5.00
2020,01,15,02,58,4.80
2020,01,15,02,59,4.70
2020,01,15,03,00,5.50
2020,01,15,03,01,5.20
2020,01,15,03,02,4.70
2020,01,15,03,03,5.70
2020,01,15,03,04,5.10
2020,01,15,03,05,5.50
2020,01,15,03,06,4.40
2020,01,15,03,07,4.00
2020,01,15,03,08,5.50
2020,01,15,03,09,4.70
2020,01,15,03,10,6.00
2020,01,15,03,11,6.20
2020,01,15,03,12,6.70
2020,01,15,03,13,5.10
2020,01,15,03,14,5.10
2020,01,15,03,15,4.90
2020,01,15,03,16,4.60
2020,01,15,03,17,5.20
2020,01,15,03,18,5.70
2020,01,15,03,19,5.40
2020,01,15,03,20,5.10
2020,01,15,03,21,4.60
2020,01,15,03,22,6.20
2020,01,15,03,23,5.30
2020,01,15,03,24,4.70
2020,01,15,03,25,6.30
2020,01,15,03,26,4.40
2020,01,15,03,27,5.10
2020,01,15,03,28,5.30
2020,01,15,03,29,5.30
2020,01,15,03,30,5.30
2020,01,15,03,31,5.10
2020,01,15,03,32,5.50
2020,01,15,03,33,6.00
2020,01,15,03,34,4.90
2020,01,15,03,35,4.90
2020,01,15,03,36,5.30
2020,01,15,03,37,5.10
2020,01,15,03,38,5.50
2020,01,15,03,39,5.40
2020,01,15,03,40,5.60
2020,01,15,03,41,4.50
2020,01,15,03,42,5.00
2020,01,15,03,43,5.60
2020,01,15,03,44,4.80
2020,01,15,03,45,4.80
2020,01,15,03,46,7.00
2020,01,15,03,47,5.30
2020,01,15,03,48,5.20
2020,01,15,03,49,5.70
2020,01,15,03,50,5.80
2020,01,15,03,51,5.80
2020,01,15,03,52,5.80
2020,01,15,03,53,4.90
2020,01,15,03,54,4.40
2020,01,15,03,55,4.60
2020,01,15,03,56,6.00
2020,01,15,03,57,4.80
2020,01,15,03,58,5.20
2020,01,15,03,59,4.80
2020,01,15,04,00,4.40
2020,01,15,04,01,4.90
2020,01,15,04,02,4.80
2020,01,15,04,03,4.10
2020,01,15,04,04,4.70
2020,01,15,04,05,4.50
2020,01,15,04,06,4.40
2020,01,15,04,07,4.90
2020,01,15,04,08,4.50
2020,01,15,04,09,4.20
2020,01,15,04,10,6.00
2020,01,15,04,11,4.90
2020,01,15,04,12,5.10
2020,01,15,04,13,4.80
2020,01,15,04,14,5.40
2020,01,15,04,15,4.90
2020,01,15,04,16,4.60
2020,01,15,04,17,4.50
2020,01,15,04,18,5.10
2020,01,15,04,19,4.00
2020,01,15,04,20,4.70
2020,01,15,04,21,4.30
2020,01,15,04,22,4.20
2020,01,15,04,23,4.40
2020,01,15,04,24,4.90
2020,01,15,04,25,5.70
2020,01,15,04,26,5.30
2020,01,15,04,27,4.60
2020,01,15,04,28,5.80
2020,01,15,04,29,4.80
2020,01,15,04,30,4.00
2020,01,15,04,31,5.30
2020,01,15,04,32,5.50
2020,01,15,04,33,5.60
2020,01,15,04,34,5.60
2020,01,15,04,35,4.20
2020,01,15,04,36,3.80
2020,01,15,04,37,4.00
2020,01,15,04,38,3.80
2020,01,15,04,39,4.90
2020,01,15,04,40,5.00
2020,01,15,04,41,3.60
2020,01,15,04,42,4.90
2020,01,15,04,43,4.00
2020,01,15,04,44,4.50
2020,01,15,04,45,4.70
2020,01,15,04,46,4.20
2020,01,15,04,47,3.80
2020,01,15,04,48,3.90
2020,01,15,04,49,4.50
2020,01,15,04,50,4.40
2020,01,15,04,51,4.30
2020,01,15,04,52,4.70
2020,01,15,04,53,3.60
2020,01,15,04,54,3.60
2020,01,15,04,55,4.10
2020,01,15,04,56,4.40
2020,01,15,04,57,4.30
2020,01,15,04,58,4.90
2020,01,15,04,59,4.30
2020,01,15,05,00,4.10
2020,01,15,05,01,4.30
2020,01,15,05,02,4.10
2020,01,15,05,03,5.20
2020,01,15,05,04,5.10
2020,01,15,05,05,4.60
2020,01,15,05,06,4.70
2020,01,15,05,07,4.50
2020,01,15,05,08,4.40
2020,01,15,05,09,4.60
2020,01,15,05,10,5.30
2020,01,15,05,11,4.20
2020,01,15,05,12,5.20
2020,01,15,05,13,4.80
2020,01,15,05,14,4.50
2020,01,15,05,15,4.80
2020,01,15,05,16,4.80
2020,01,15,05,17,4.60
2020,01,15,05,18,4.60
2020,01,15,05,19,4.90
2020,01,15,05,20,4.20
2020,01,15,05,21,4.90
2020,01,15,05,22,4.50
2020,01,15,05,23,4.50
2020,01,15,05,24,4.50
2020,01,15,05,25,4.20
2020,01,15,05,26,4.10
2020,01,15,05,27,3.80
2020,01,15,05,28,4.90
2020,01,15,05,29,5.50
2020,01,15,05,30,4.50
2020,01,15,05,31,4.10
2020,01,15,05,32,3.90
2020,01,15,05,33,4.20
2020,01,15,05,34,4.90
2020,01,15,05,35,4.20
2020,01,15,05,36,4.60
2020,01,15,05,37,4.80
2020,01,15,05,38,3.20
2020,01,15,05,39,4.50
2020,01,15,05,40,5.20
2020,01,15,05,41,4.90
2020,01,15,05,42,5.10
2020,01,15,05,43,3.50
2020,01,15,05,44,3.70
2020,01,15,05,45,5.20
2020,01,15,05,46,4.90
2020,01,15,05,47,4.90
2020,01,15,05,48,4.60
2020,01,15,05,49,3.70
2020,01,15,05,50,4.10
2020,01,15,05,51,3.70
2020,01,15,05,52,4.30
2020,01,15,05,53,5.10
2020,01,15,05,54,4.10
2020,01,15,05,55,4.30
2020,01,15,05,56,3.70
2020,01,15,05,57,4.80
2020,01,15,05,58,5.50
2020,01,15,05,59,5.10
2020,01,15,06,00,4.90
2020,01,15,06,01,3.30
2020,01,15,06,02,4.30
2020,01,15,06,03,3.00
2020,01,15,06,04,3.70
2020,01,15,06,05,3.70
2020,01,15,06,06,3.00
2020,01,15,06,07,4.00
2020,01,15,06,08,3.10
2020,01,15,06,09,3.50
2020,01,15,06,10,3.40
2020,01,15,06,11,3.70
2020,01,15,06,12,3.70
2020,01,15,06,13,3.70
2020,01,15,06,14,3.50
2020,01,15,06,15,3.60
2020,01,15,06,16,3.70
2020,01,15,06,17,3.60
2020,01,15,06,18,4.10
2020,01,15,06,19,3.90
2020,01,15,06,20,4.50
2020,01,15,06,21,3.20
2020,01,15,06,22,4.00
2020,01,15,06,23,3.40
2020,01,15,06,24,2.80
2020,01,15,06,25,3.80
2020,01,15,06,26,2.40
2020,01,15,06,27,4.10
2020,01,15,06,28,3.70
2020,01,15,06,29,4.10
2020,01,15,06,30,3.40
2020,01,15,06,31,3.60
2020,01,15,06,32,3.40
2020,01,15,06,33,3.40
2020,01,15,06,34,4.30
2020,01,15,06,35,3.30
2020,01,15,06,36,2.50
2020,01,15,06,37,3.00
2020,01,15,06,38,1.70
2020,01,15,06,39,2.10
2020,01,15,06,40,3.00
2020,01,15,06,41,3.40
2020,01,15,06,42,3.60
2020,01,15,06,43,2.90
2020,01,15,06,44,3.00
2020,01,15,06,45,2.40
2020,01,15,06,46,2.60
2020,01,15,06,47,3.00
2020,01,15,06,48,3.30
2020,01,15,06,49,3.50
2020,01,15,06,50,2.90
2020,01,15,06,51,3.10
2020,01,15,06,52,2.70
2020,01,15,06,53,3.20
2020,01,15,06,54,3.60
2020,01,15,06,55,2.60
2020,01,15,06,56,3.10
2020,01,15,06,57,3.00
2020,01,15,06,58,2.60
2020,01,15,06,59,3.60
2020,01,15,07,00,4.30
2020,01,15,07,01,3.40
2020,01,15,07,02,3.70
2020,01,15,07,03,3.20
2020,01,15,07,04,3.90
2020,01,15,07,05,2.80
2020,01,15,07,06,3.10
2020,01,15,07,07,3.70
2020,01,15,07,08,3.10
2020,01,15,07,09,3.20
2020,01,15,07,10,3.90
2020,01,15,07,11,3.80
2020,01,15,07,12,3.20
2020,01,15,07,13,4.10
2020,01,15,07,14,3.90
2020,01,15,07,15,2.50
2020,01,15,07,16,3.90
2020,01,15,07,17,4.70
2020,01,15,07,18,3.30
2020,01,15,07,19,4.00
2020,01,15,07,20,3.40
2020,01,15,07,21,4.30
2020,01,15,07,22,7.00
2020,01,15,07,23,4.80
2020,01,15,07,24,6.40
2020,01,15,07,25,3.30
2020,01,15,07,26,3.00
2020,01,15,07,27,3.50
2020,01,15,07,28,3.20
2020,01,15,07,29,4.10
2020,01,15,07,30,3.30
2020,01,15,07,31,4.00
2020,01,15,07,32,4.60
2020,01,15,07,33,4.40
2020,01,15,07,34,3.80
2020,01,15,07,35,3.70
2020,01,15,07,36,6.40
2020,01,15,07,37,3.80
2020,01,15,07,38,4.30
2020,01,15,07,39,4.50
2020,01,15,07,40,4.30
2020,01,15,07,41,3.70
2020,01,15,07,42,3.70
2020,01,15,07,43,4.80
2020,01,15,07,44,3.40
2020,01,15,07,45,3.00
2020,01,15,07,46,4.00
2020,01,15,07,47,4.00
2020,01,15,07,48,4.20
2020,01,15,07,49,4.00
2020,01,15,07,50,4.30
2020,01,15,07,51,4.10
2020,01,15,07,52,4.20
2020,01,15,07,53,3.80
2020,01,15,07,54,4.00
2020,01,15,07,55,4.70
2020,01,15,07,56,4.10
2020,01,15,07,57,4.40
2020,01,15,07,58,3.70
2020,01,15,07,59,3.70
2020,01,15,08,00,3.60
2020,01,15,08,01,4.40
2020,01,15,08,02,3.70
2020,01,15,08,03,3.80
2020,01,15,08,04,3.50
2020,01,15,08,05,3.30
2020,01,15,08,06,4.10
2020,01,15,08,07,3.70
2020,01,15,08,08,3.60
2020,01,15,08,09,3.70
2020,01,15,08,10,2.70
2020,01,15,08,11,3.60
2020,01,15,08,12,4.00
2020,01,15,08,13,4.00
2020,01,15,08,14,4.20
2020,01,15,08,15,4.80
2020,01,15,08,16,3.50
2020,01,15,08,17,3.40
2020,01,15,08,18,3.10
2020,01,15,08,19,3.30
2020,01,15,08,20,4.20
2020,01,15,08,21,4.10
2020,01,15,08,22,3.10
2020,01,15,08,23,3.70
2020,01,15,08,24,4.20
2020,01,15,08,25,2.70
2020,01,15,08,26,1.90
2020,01,15,08,27,2.60
2020,01,15,08,28,3.50
2020,01,15,08,29,2.60
2020,01,15,08,30,3.30
2020,01,15,08,31,3.00
2020,01,15,08,32,4.30
2020,01,15,08,33,6.80
2020,01,15,08,34,5.80
2020,01,15,08,35,4.90
2020,01,15,08,36,6.10
2020,01,15,08,37,5.40
2020,01,15,08,38,5.00
2020,01,15,08,39,4.50
2020,01,15,08,40,3.70
2020,01,15,08,41,3.30
2020,01,15,08,42,4.90
2020,01,15,08,43,4.90
2020,01,15,08,44,4.80
2020,01,15,08,45,4.90
2020,01,15,08,46,5.20
2020,01,15,08,47,4.90
2020,01,15,08,48,3.90
2020,01,15,08,49,4.40
2020,01,15,08,50,3.70
2020,01,15,08,51,5.90
2020,01,15,08,52,8.80
2020,01,15,08,53,4.80
2020,01,15,08,54,6.50
2020,01,15,08,55,6.30
2020,01,15,08,56,4.20
2020,01,15,08,57,4.30
2020,01,15,08,58,10.70
2020,01,15,08,59,6.00
2020,01,15,09,00,4.60
2020,01,15,09,01,11.00
2020,01,15,09,02,8.10
2020,01,15,09,03,4.50
2020,01,15,09,04,6.60
2020,01,15,09,05,9.80
2020,01,15,09,06,6.10
2020,01,15,09,07,11.40
2020,01,15,09,08,8.60
2020,01,15,09,09,6.80
2020,01,15,09,10,4.90
2020,01,15,09,11,10.00
2020,01,15,09,12,5.50
2020,01,15,09,13,5.20
2020,01,15,09,14,4.80
2020,01,15,09,15,11.00
2020,01,15,09,16,11.90
2020,01,15,09,17,10.30
2020,01,15,09,18,10.20
2020,01,15,09,19,9.20
2020,01,15,09,20,11.30
2020,01,15,09,21,6.70
2020,01,15,09,22,11.60
2020,01,15,09,23,8.10
2020,01,15,09,24,10.10
2020,01,15,09,25,10.30
2020,01,15,09,26,5.50
2020,01,15,09,27,6.50
2020,01,15,09,28,6.90
2020,01,15,09,29,6.40
2020,01,15,09,30,6.80
2020,01,15,09,31,8.70
2020,01,15,09,32,7.00
2020,01,15,09,33,7.10
2020,01,15,09,34,6.30
2020,01,15,09,35,8.40
2020,01,15,09,36,7.60
2020,01,15,09,37,8.90
2020,01,15,09,38,7.60
2020,01,15,09,39,5.90
2020,01,15,09,40,6.10
2020,01,15,09,41,6.80
2020,01,15,09,42,7.60
2020,01,15,09,43,9.10
2020,01,15,09,44,14.40
2020,01,15,09,45,12.40
2020,01,15,09,46,14.40
2020,01,15,09,47,6.30
2020,01,15,09,48,12.70
2020,01,15,09,49,9.80
2020,01,15,09,50,11.40
2020,01,15,09,51,13.20
2020,01,15,09,52,12.90
2020,01,15,09,53,9.50
2020,01,15,09,54,13.60
2020,01,15,09,55,15.60
2020,01,15,09,56,12.50
2020,01,15,09,57,11.60
2020,01,15,09,58,11.20
2020,01,15,09,59,7.70
2020,01,15,10,00,7.30
2020,01,15,10,01,12.10
2020,01,15,10,02,8.40
2020,01,15,10,03,11.70
2020,01,15,10,04,11.00
2020,01,15,10,05,12.50
2020,01,15,10,06,7.60
2020,01,15,10,07,10.90
2020,01,15,10,08,14.50
2020,01,15,10,09,12.70
2020,01,15,10,10,14.30
2020,01,15,10,11,16.50
2020,01,15,10,12,13.00
2020,01,15,10,13,12.40
2020,01,15,10,14,13.10
2020,01,15,10,15,15.60
2020,01,15,10,16,12.90
2020,01,15,10,17,15.60
2020,01,15,10,18,17.30
2020,01,15,10,19,15.70
2020,01,15,10,20,13.20
2020,01,15,10,21,10.50
2020,01,15,10,22,17.80
2020,01,15,10,23,11.80
2020,01,15,10,24,11.90
2020,01,15,10,25,10.90
2020,01,15,10,26,12.20
2020,01,15,10,27,12.20
2020,01,15,10,28,20.40
2020,01,15,10,29,16.00
2020,01,15,10,30,14.50
2020,01,15,10,31,10.30
2020,01,15,10,32,9.80
2020,01,15,10,33,11.30
2020,01,15,10,34,19.50
2020,01,15,10,35,17.60
2020,01,15,10,36,13.20
2020,01,15,10,37,12.20
2020,01,15,10,38,12.80
2020,01,15,10,39,13.50
2020,01,15,10,40,12.80
2020,01,15,10,41,16.40
2020,01,15,10,42,16.40
2020,01,15,10,43,14.10
2020,01,15,10,44,17.60
2020,01,15,10,45,16.20
2020,01,15,10,46,15.40
2020,01,15,10,47,14.50
2020,01,15,10,48,11.80
2020,01,15,10,49,12.10
2020,01,15,10,50,12.30
2020,01,15,10,51,13.70
2020,01,15,10,52,11.60
2020,01,15,10,53,12.40
2020,01,15,10,54,13.00
2020,01,15,10,55,13.50
2020,01,15,10,56,11.00
2020,01,15,10,57,10.60
2020,01,15,10,58,12.90
2020,01,15,10,59,15.50
2020,01,15,11,00,17.60
2020,01,15,11,01,19.80
2020,01,15,11,02,19.00
2020,01,15,11,03,17.50
2020,01,15,11,04,17.50
2020,01,15,11,05,19.10
2020,01,15,11,06,15.50
2020,01,15,11,07,18.90
2020,01,15,11,08,16.90
2020,01,15,11,09,16.50
2020,01,15,11,10,13.70
2020,01,15,11,11,14.10
2020,01,15,11,12,15.80
2020,01,15,11,13,19.00
2020,01,15,11,14,14.50
2020,01,15,11,15,9.80
2020,01,15,11,16,17.70
2020,01,15,11,17,17.60
2020,01,15,11,18,17.30
2020,01,15,11,19,18.40
2020,01,15,11,20,15.30
2020,01,15,11,21,12.00
2020,01,15,11,22,13.20
2020,01,15,11,23,12.00
2020,01,15,11,24,12.70
2020,01,15,11,25,15.50
2020,01,15,11,26,15.50
2020,01,15,11,27,12.40
2020,01,15,11,28,17.70
2020,01,15,11,29,20.70
2020,01,15,11,30,17.60
2020,01,15,11,31,14.10
2020,01,15,11,32,15.90
2020,01,15,11,33,13.50
2020,01,15,11,34,18.40
2020,01,15,11,35,16.30
2020,01,15,11,36,14.50
2020,01,15,11,37,14.60
2020,01,15,11,38,11.40
2020,01,15,11,39,12.30
2020,01,15,11,40,11.00
2020,01,15,11,41,13.40
2020,01,15,11,42,13.70
2020,01,15,11,43,12.60
2020,01,15,11,44,18.20
2020,01,15,11,45,15.30
2020,01,15,11,46,15.60
2020,01,15,11,47,15.80
2020,01,15,11,48,18.30
2020,01,15,11,49,14.10
2020,01,15,11,50,14.40
2020,01,15,11,51,12.90
2020,01,15,11,52,12.80
2020,01,15,11,53,11.80
2020,01,15,11,54,13.90
2020,01,15,11,55,6.70
2020,01,15,11,56,9.60
2020,01,15,11,57,7.10
2020,01,15,11,58,7.30
2020,01,15,11,59,4.90
2020,01,15,12,00,7.40
2020,01,15,12,01,6.00
2020,01,15,12,02,7.10
2020,01,15,12,03,10.30
2020,01,15,12,04,9.30
2020,01,15,12,05,10.10
2020,01,15,12,06,12.10
2020,01,15,12,07,13.80
2020,01,15,12,08,11.00
2020,01,15,12,09,12.00
2020,01,15,12,10,14.90
2020,01,15,12,11,12.90
2020,01,15,12,12,10.80
2020,01,15,12,13,8.80
2020,01,15,12,14,10.20
2020,01,15,12,15,6.00
2020,01,15,12,16,7.00
2020,01,15,12,17,5.40
2020,01,15,12,18,5.00
2020,01,15,12,19,6.50
2020,01,15,12,20,10.00
2020,01,15,12,21,9.10
2020,01,15,12,22,7.20
2020,01,15,12,23,4.50
2020,01,15,12,24,9.00
2020,01,15,12,25,12.30
2020,01,15,12,26,8.50
2020,01,15,12,27,5.80
2020,01,15,12,28,10.10
2020,01,15,12,29,10.00
2020,01,15,12,30,6.00
2020,01,15,12,31,8.10
2020,01,15,12,32,16.30
2020,01,15,12,33,13.80
2020,01,15,12,34,9.90
2020,01,15,12,35,12.90
2020,01,15,12,36,14.30
2020,01,15,12,37,12.40
2020,01,15,12,38,17.70
2020,01,15,12,39,9.20
2020,01,15,12,40,6.30
2020,01,15,12,41,4.90
2020,01,15,12,42,5.60
2020,01,15,12,43,5.70
2020,01,15,12,44,10.00
2020,01,15,12,45,7.70
2020,01,15,12,46,12.00
2020,01,15,12,47,15.30
2020,01,15,12,48,12.90
2020,01,15,12,49,15.10
2020,01,15,12,50,16.20
2020,01,15,12,51,10.60
2020,01,15,12,52,15.20
2020,01,15,12,53,15.90
2020,01,15,12,54,16.30
2020,01,15,12,55,13.40
2020,01,15,12,56,12.30
2020,01,15,12,57,15.70
2020,01,15,12,58,18.50
2020,01,15,12,59,19.70
2020,01,15,13,00,17.90
2020,01,15,13,01,17.90
2020,01,15,13,02,16.50
2020,01,15,13,03,18.70
2020,01,15,13,04,16.60
2020,01,15,13,05,16.40
2020,01,15,13,06,17.60
2020,01,15,13,07,17.00
2020,01,15,13,08,14.80
2020,01,15,13,09,15.10
2020,01,15,13,10,18.60
2020,01,15,13,11,11.70
2020,01,15,13,12,15.30
2020,01,15,13,13,14.10
2020,01,15,13,14,14.60
2020,01,15,13,15,12.90
2020,01,15,13,16,14.80
2020,01,15,13,17,17.90
2020,01,15,13,18,16.20
2020,01,15,13,19,19.00
2020,01,15,13,20,15.40
2020,01,15,13,21,16.90
2020,01,15,13,22,16.40
2020,01,15,13,23,11.50
2020,01,15,13,24,16.10
2020,01,15,13,25,18.40
2020,01,15,13,26,17.00
2020,01,15,13,27,14.80
2020,01,15,13,28,17.70
2020,01,15,13,29,17.00
2020,01,15,13,30,15.90
2020,01,15,13,31,13.10
2020,01,15,13,32,19.60
2020,01,15,13,33,18.40
2020,01,15,13,34,16.00
2020,01,15,13,35,14.70
2020,01,15,13,36,13.30
2020,01,15,13,37,22.30
2020,01,15,13,38,22.50
2020,01,15,13,39,20.10
2020,01,15,13,40,20.90
2020,01,15,13,41,17.90
2020,01,15,13,42,18.80
2020,01,15,13,43,19.00
2020,01,15,13,44,20.30
2020,01,15,13,45,19.40
2020,01,15,13,46,16.70
2020,01,15,13,47,14.60
2020,01,15,13,48,14.50
2020,01,15,13,49,10.70
2020,01,15,13,50,19.40
2020,01,15,13,51,16.90
2020,01,15,13,52,18.30
2020,01,15,13,53,18.80
2020,01,15,13,54,17.00
2020,01,15,13,55,16.00
2020,01,15,13,56,16.10
2020,01,15,13,57,21.30
2020,01,15,13,58,23.50
2020,01,15,13,59,22.10
2020,01,15,14,00,18.50
2020,01,15,14,01,20.20
2020,01,15,14,02,16.50
2020,01,15,14,03,19.00
2020,01,15,14,04,17.60
2020,01,15,14,05,17.80
2020,01,15,14,06,22.90
2020,01,15,14,07,23.80
2020,01,15,14,08,22.70
2020,01,15,14,09,22.40
2020,01,15,14,10,27.80
2020,01,15,14,11,24.20
2020,01,15,14,12,24.10
2020,01,15,14,13,23.00
2020,01,15,14,14,22.20
2020,01,15,14,15,19.70
2020,01,15,14,16,24.40
2020,01,15,14,17,19.50
2020,01,15,14,18,16.70
2020,01,15,14,19,17.80
2020,01,15,14,20,19.20
2020,01,15,14,21,18.40
2020,01,15,14,22,16.80
2020,01,15,14,23,17.10
2020,01,15,14,24,17.70
2020,01,15,14,25,12.80
2020,01,15,14,26,16.00
2020,01,15,14,27,14.10
2020,01,15,14,28,18.80
2020,01,15,14,29,17.20
2020,01,15,14,30,17.20
2020,01,15,14,31,18.30
2020,01,15,14,32,19.10
2020,01,15,14,33,15.70
2020,01,15,14,34,16.30
2020,01,15,14,35,17.80
2020,01,15,14,36,19.70
2020,01,15,14,37,19.80
2020,01,15,14,38,16.80
2020,01,15,14,39,19.20
2020,01,15,14,40,20.10
2020,01,15,14,41,24.10
2020,01,15,14,42,21.70
2020,01,15,14,43,20.70
2020,01,15,14,44,19.90
2020,01,15,14,45,21.80
2020,01,15,14,46,20.90
2020,01,15,14,47,20.90
2020,01,15,14,48,20.70
2020,01,15,14,49,20.70
2020,01,15,14,50,20.20
2020,01,15,14,51,21.90
2020,01,15,14,52,26.00
2020,01,15,14,53,22.20
2020,01,15,14,54,19.00
2020,01,15,14,55,22.20
2020,01,15,14,56,21.40
2020,01,15,14,57,25.10
2020,01,15,14,58,23.30
2020,01,15,14,59,17.60
2020,01,15,15,00,23.60
2020,01,15,15,01,24.70
2020,01,15,15,02,21.90
2020,01,15,15,03,17.60
2020,01,15,15,04,22.00
2020,01,15,15,05,21.30
2020,01,15,15,06,11.60
2020,01,15,15,07,14.10
2020,01,15,15,08,16.60
2020,01,15,15,09,23.70
2020,01,15,15,10,22.30
2020,01,15,15,11,21.50
2020,01,15,15,12,18.90
2020,01,15,15,13,21.00
2020,01,15,15,14,22.30
2020,01,15,15,15,25.20
2020,01,15,15,16,22.70
2020,01,15,15,17,21.60
2020,01,15,15,18,22.80
2020,01,15,15,19,16.30
2020,01,15,15,20,17.70
2020,01,15,15,21,18.30
2020,01,15,15,22,13.50
2020,01,15,15,23,18.70
2020,01,15,15,24,24.70
2020,01,15,15,25,18.10
2020,01,15,15,26,18.50
2020,01,15,15,27,18.00
2020,01,15,15,28,20.20
2020,01,15,15,29,22.10
2020,01,15,15,30,25.00
2020,01,15,15,31,20.90
2020,01,15,15,32,18.30
2020,01,15,15,33,21.90
2020,01,15,15,34,17.20
2020,01,15,15,35,21.20
2020,01,15,15,36,24.60
2020,01,15,15,37,18.60
2020,01,15,15,38,22.80
2020,01,15,15,39,23.10
2020,01,15,15,40,22.70
2020,01,15,15,41,26.50
2020,01,15,15,42,23.20
2020,01,15,15,43,23.80
2020,01,15,15,44,20.10
2020,01,15,15,45,21.00
2020,01,15,15,46,20.10
2020,01,15,15,47,21.10
2020,01,15,15,48,18.30
2020,01,15,15,49,23.60
2020,01,15,15,50,23.80
2020,01,15,15,51,20.60
2020,01,15,15,52,23.50
2020,01,15,15,53,24.40
2020,01,15,15,54,25.40
2020,01,15,15,55,17.20
2020,01,15,15,56,20.30
2020,01,15,15,57,22.50
2020,01,15,15,58,16.70
2020,01,15,15,59,17.00
2020,01,15,16,00,23.40
2020,01,15,16,01,19.70
2020,01,15,16,02,14.70
2020,01,15,16,03,17.50
2020,01,15,16,04,24.50
2020,01,15,16,05,22.60
2020,01,15,16,06,25.10
2020,01,15,16,07,20.90
2020,01,15,16,08,19.30
2020,01,15,16,09,16.60
2020,01,15,16,10,24.70
2020,01,15,16,11,23.30
2020,01,15,16,12,24.70
2020,01,15,16,13,19.50
2020,01,15,16,14,24.30
2020,01,15,16,15,22.30
2020,01,15,16,16,20.90
2020,01,15,16,17,18.70
2020,01,15,16,18,18.20
2020,01,15,16,19,18.50
2020,01,15,16,20,21.80
2020,01,15,16,21,21.50
2020,01,15,16,22,15.60
2020,01,15,16,23,19.40
2020,01,15,16,24,24.70
2020,01,15,16,25,21.80
2020,01,15,16,26,18.80
2020,01,15,16,27,23.80
2020,01,15,16,28,20.30
2020,01,15,16,29,23.00
2020,01,15,16,30,25.50
2020,01,15,16,31,20.50
2020,01,15,16,32,17.80
2020,01,15,16,33,21.00
2020,01,15,16,34,21.80
2020,01,15,16,35,18.00
2020,01,15,16,36,19.90
2020,01,15,16,37,24.10
2020,01,15,16,38,22.50
2020,01,15,16,39,29.50
2020,01,15,16,40,23.30
2020,01,15,16,41,21.60
2020,01,15,16,42,22.70
2020,01,15,16,43,24.00
2020,01,15,16,44,24.30
2020,01,15,16,45,26.90
2020,01,15,16,46,20.10
2020,01,15,16,47,24.10
2020,01,15,16,48,21.30
2020,01,15,16,49,25.20
2020,01,15,16,50,22.30
2020,01,15,16,51,26.50
2020,01,15,16,52,23.70
2020,01,15,16,53,21.50
2020,01,15,16,54,23.50
2020,01,15,16,55,21.90
2020,01,15,16,56,24.30
2020,01,15,16,57,23.20
2020,01,15,16,58,19.90
2020,01,15,16,59,21.10
2020,01,15,17,00,20.90
2020,01,15,17,01,24.00
2020,01,15,17,02,21.20
2020,01,15,17,03,23.10
2020,01,15,17,04,19.40
2020,01,15,17,05,24.60
2020,01,15,17,06,21.40
2020,01,15,17,07,22.40
2020,01,15,17,08,22.10
2020,01,15,17,09,24.00
2020,01,15,17,10,21.30
2020,01,15,17,11,16.90
2020,01,15,17,12,21.80
2020,01,15,17,13,20.80
2020,01,15,17,14,19.50
2020,01,15,17,15,23.70
2020,01,15,17,16,23.90
2020,01,15,17,17,19.30
2020,01,15,17,18,25.40
2020,01,15,17,19,25.00
2020,01,15,17,20,24.00
2020,01,15,17,21,21.80
2020,01,15,17,22,26.20
2020,01,15,17,23,24.90
2020,01,15,17,24,21.50
2020,01,15,17,25,22.80
2020,01,15,17,26,24.70
2020,01,15,17,27,22.10
2020,01,15,17,28,19.40
2020,01,15,17,29,22.90
2020,01,15,17,30,26.40
2020,01,15,17,31,27.00
2020,01,15,17,32,22.20
2020,01,15,17,33,18.20
2020,01,15,17,34,24.30
2020,01,15,17,35,29.10
2020,01,15,17,36,20.60
2020,01,15,17,37,20.80
2020,01,15,17,38,24.60
2020,01,15,17,39,19.20
2020,01,15,17,40,25.10
2020,01,15,17,41,26.30
2020,01,15,17,42,24.40
2020,01,15,17,43,20.70
2020,01,15,17,44,22.60
2020,01,15,17,45,21.80